969  
ASUS42 KRAH 280010  
RWRRAH  
NORTH CAROLINA WEATHER ROUNDUP  
NATIONAL WEATHER SERVICE RALEIGH NC  
800 PM EDT WED JUL 27 2016  
 
NOTE: "FAIR" INDICATES FEW OR NO CLOUDS BELOW 12,000 FEET WITH NO  
SIGNIFICANT WEATHER AND/OR S TO VISIBILITY
.  
 
NCZ001-053-055-056-065-067-280100-  
WESTERN NORTH CAROLINA  
 
CITY SKY/WX TMP DP RH WIND PRES REMARKS
 
ASHEVILLE CLEAR 84 68 58 S8 30.04S  
JEFFERSON PTCLDY 75 71 87 CALM 30.09F  
HICKORY CLEAR 88 67 49 CALM 29.95S  
RUTHERFORDTON N/A 88 71 56 SW5 29.97R  
MOUNT AIRY CLOUDY 82 73 74 E8 30.02S  
BOONE PTCLDY 69 67 93 CALM 30.12S  

 
 
NCZ021-022-025-041-071-084-088-280100-  
CENTRAL NORTH CAROLINA  
 
CITY SKY/WX TMP DP RH WIND PRES REMARKS
 
CHARLOTTE PTCLDY 93 68 43 SW6 29.94R HX 97  
GREENSBORO TSTM 74 71 91 NE14G21 29.97F FOG  
WINSTON-SALEM TSTM 74 71 91 NE12 30.00R FOG  
RALEIGH-DURHAM MOCLDY 84 71 65 VRB7 29.95R  
FORT BRAGG CLEAR 93 71 47 SW7 29.91S HX 99  
FAYETTEVILLE CLEAR 93 71 48 S8 29.91R HX 100  
BURLINGTON TSTM 77 71 82 W9 30.00R  
LAURINBURG CLEAR 92 74 55 SW8 29.93R HX 101  

 
 
NCZ011-015-027-028-043-044-047-080-103-280100-  
NORTHEASTERN NORTH CAROLINA  
 
CITY SKY/WX TMP DP RH WIND PRES REMARKS
 
ROCKY MT-WILSO CLOUDY 85 81 88 CALM 29.91S HX 100  
GREENVILLE CLOUDY 88 79 74 CALM 29.92F HX 102  
WASHINGTON CLEAR 81 76 85 SE8 29.93R  
ELIZABETH CITY PTCLDY 88 79 74 E8 29.91R HX 103  
MANTEO NOT AVBL  
CAPE HATTERAS CLOUDY 84 80 88 SW9 29.94R HX 97  

 
 
NCZ078-087-090-091-093-098-101-280100-  
SOUTHEASTERN NORTH CAROLINA  
 
CITY SKY/WX TMP DP RH WIND PRES REMARKS
 
LUMBERTON CLEAR 89 74 60 SW6 29.92R HX 98  
GOLDSBORO CLEAR 93 75 55 W6 29.89R HX 104  
KINSTON PTCLDY 90 75 62 S6 29.92R HX 100  
KENANSVILLE NOT AVBL  
NEW BERN CLEAR 88 77 69 S6 29.92R HX 100  
CHERRY POINT MOCLDY 87 76 69 S8 29.93R HX 97  
BEAUFORT CLEAR 85 80 85 SW13G20 29.94R HX 99  
JACKSONVILLE CLEAR 88 78 72 SW7 29.90S HX 101  
WILMINGTON CLEAR 87 76 69 SW9 29.94R HX 97  

 
 
 
 
CLICK HERE TO GO TO PREVIOUS BULLETINS.

The Nexlab NC Page Main Text Page